Location: West Sayville
(40.7279°N, 73.0976°W)
Time: 05:00:13
(UTC+00:00)

Atlas Centaur 2 - Pass Details

Date: 29 October 2020
Orbit: 459 x 1309 km, 30.4° (Epoch: 29 November)

Event Time Altitude Azimuth Distance (km) Brightness Sun altitude
Rises 22:18:54 0° 241° (WSW) 3,984 7.5 -5.8°
Reaches altitude 10° 22:21:49 10° 233° (SW) 3,121 6.4 -6.3°
Maximum altitude 22:29:00 37° 170° (S) 1,880 4.0 -7.7°
Drops below altitude 10° 22:36:38 10° 107° (ESE) 3,316 4.7 -9.1°
Enters shadow 22:37:31 - 104° (ESE) 3,569 4.9 -9.2°
